owner,sensor,date,latitude,longitude,vertical_datum,sea_water_practical_salinity,qcFlag 
ENP,ioos.station.NOAA.NDBC:LBRF1:1,2017-03-01T00:00:00Z,25.4840,-81.1330,1.5,29.99,1111122 
ENP,ioos.station.NOAA.NDBC:LBRF1:1,2017-03-01T01:00:00Z,25.4840,-81.1330,1.5,28.91,1111122 
ENP,ioos.station.NOAA.NDBC:LBRF1:1,2017-03-01T03:00:00Z,25.4840,-81.1330,1.5,18.0,11111222 
ENP,ioos.station.NOAA.NDBC:LBRF1:1,2017-03-01T04:00:00Z,25.4840,-81.1330,1.5,16.6,1111122 
ENP,ioos.station.NOAA.NDBC:LBRF1:1,2017-03-01T05:00:00Z,25.4840,-81.1330,1.5,16.2,11111222 
ENP,ioos.station.NOAA.NDBC:LBRF1:1,2017-03-01T06:00:00Z,25.4840,-81.1330,1.5,16.5,11111222 
ENP,ioos.station.NOAA.NDBC:LBRF1:1,2017-03-01T07:00:00Z,25.4840,-81.1330,1.5,20.96,1111122 
ENP,ioos.station.NOAA.NDBC:LBRF1:1,2017-03-01T08:00:00Z,25.4840,-81.1330,1.5,29.56,1111122 
ENP,ioos.station.NOAA.NDBC:LBRF1:1,2017-03-01T09:00:00Z,25.4840,-81.1330,1.5,30.57,1111122 
ENP,ioos.station.NOAA.NDBC:LBRF1:1,2017-03-01T10:00:00Z,25.4840,-81.1330,1.5,31.1,11111222 
ENP,ioos.station.NOAA.NDBC:LBRF1:1,2017-03-01T11:00:00Z,25.4840,-81.1330,1.5,31.29,1111122 
ENP,ioos.station.NOAA.NDBC:LBRF1:1,2017-03-01T12:00:00Z,25.4840,-81.1330,1.5,30.57,1111122 
ENP,ioos.station.NOAA.NDBC:LBRF1:1,2017-03-01T13:00:00Z,25.4840,-81.1330,1.5,29.63,1111122 
ENP,ioos.station.NOAA.NDBC:LBRF1:1,2017-03-01T14:00:00Z,25.4840,-81.1330,1.5,27.84,1111122 
ENP,ioos.station.NOAA.NDBC:LBRF1:1,2017-03-01T15:00:00Z,25.4840,-81.1330,1.5,21.1,1111122 
ENP,ioos.station.NOAA.NDBC:LBRF1:1,2017-03-01T16:00:00Z,25.4840,-81.1330,1.5,16.87,1111122 
ENP,ioos.station.NOAA.NDBC:LBRF1:1,2017-03-01T17:00:00Z,25.4840,-81.1330,1.5,16.2,1111122 
ENP,ioos.station.NOAA.NDBC:LBRF1:1,2017-03-01T18:00:00Z,25.4840,-81.1330,1.5,16.53,1111122 
ENP,ioos.station.NOAA.NDBC:LBRF1:1,2017-03-01T19:00:00Z,25.4840,-81.1330,1.5,23.18,1111122 
ENP,ioos.station.NOAA.NDBC:LBRF1:1,2017-03-01T20:00:00Z,25.4840,-81.1330,1.5,29.7,1111122 
ENP,ioos.station.NOAA.NDBC:LBRF1:1,2017-03-01T21:00:00Z,25.4840,-81.1330,1.5,30.5,1111122 
ENP,ioos.station.NOAA.NDBC:LBRF1:1,2017-03-01T22:00:00Z,25.4840,-81.1330,1.5,31.4,11111222 
ENP,ioos.station.NOAA.NDBC:LBRF1:1,2017-03-01T23:00:00Z,25.4840,-81.1330,1.5,31.58,1111122 
ENP,ioos.station.NOAA.NDBC:LBRF1:1,2017-03-02T00:00:00Z,25.4840,-81.1330,1.5,31.15,1111122 
ENP,ioos.station.NOAA.NDBC:LBRF1:1,2017-03-02T01:00:00Z,25.4840,-81.1330,1.5,30.06,1111122 
ENP,ioos.station.NOAA.NDBC:LBRF1:1,2017-03-02T03:00:00Z,25.4840,-81.1330,1.5,27.1,11111222 
ENP,ioos.station.NOAA.NDBC:LBRF1:1,2017-03-02T04:00:00Z,25.4840,-81.1330,1.5,20.75,1111122 
ENP,ioos.station.NOAA.NDBC:LBRF1:1,2017-03-02T05:00:00Z,25.4840,-81.1330,1.5,17.5,11111222 
ENP,ioos.station.NOAA.NDBC:LBRF1:1,2017-03-02T06:00:00Z,25.4840,-81.1330,1.5,17.0,11111222 
ENP,ioos.station.NOAA.NDBC:LBRF1:1,2017-03-02T07:00:00Z,25.4840,-81.1330,1.5,19.31,1111122 
ENP,ioos.station.NOAA.NDBC:LBRF1:1,2017-03-02T08:00:00Z,25.4840,-81.1330,1.5,28.05,1111122 
ENP,ioos.station.NOAA.NDBC:LBRF1:1,2017-03-02T09:00:00Z,25.4840,-81.1330,1.5,30.35,1111122 
ENP,ioos.station.NOAA.NDBC:LBRF1:1,2017-03-02T10:00:00Z,25.4840,-81.1330,1.5,30.9,11111222 
ENP,ioos.station.NOAA.NDBC:LBRF1:1,2017-03-02T11:00:00Z,25.4840,-81.1330,1.5,31.29,1111122 
ENP,ioos.station.NOAA.NDBC:LBRF1:1,2017-03-02T12:00:00Z,25.4840,-81.1330,1.5,31.0,11111222 
ENP,ioos.station.NOAA.NDBC:LBRF1:1,2017-03-02T13:00:00Z,25.4840,-81.1330,1.5,30.5,1111122 
ENP,ioos.station.NOAA.NDBC:LBRF1:1,2017-03-02T14:00:00Z,25.4840,-81.1330,1.5,29.7,1111122 
ENP,ioos.station.NOAA.NDBC:LBRF1:1,2017-03-02T15:00:00Z,25.4840,-81.1330,1.5,28.98,1111122 
ENP,ioos.station.NOAA.NDBC:LBRF1:1,2017-03-02T16:00:00Z,25.4840,-81.1330,1.5,23.7,11111222 
ENP,ioos.station.NOAA.NDBC:LBRF1:1,2017-03-02T17:00:00Z,25.4840,-81.1330,1.5,18.9,1111122 
ENP,ioos.station.NOAA.NDBC:LBRF1:1,2017-03-03T12:00:00Z,25.4840,-81.1330,1.5,30.1,11111222 
ENP,ioos.station.NOAA.NDBC:LBRF1:1,2017-03-03T13:00:00Z,25.4840,-81.1330,1.5,29.2,1111122 
ENP,ioos.station.NOAA.NDBC:LBRF1:1,2017-03-03T14:00:00Z,25.4840,-81.1330,1.5,25.99,1111122 
ENP,ioos.station.NOAA.NDBC:LBRF1:1,2017-03-03T15:00:00Z,25.4840,-81.1330,1.5,21.86,1111122 
ENP,ioos.station.NOAA.NDBC:LBRF1:1,2017-03-03T16:00:00Z,25.4840,-81.1330,1.5,17.95,1111122 
ENP,ioos.station.NOAA.NDBC:LBRF1:1,2017-03-03T17:00:00Z,25.4840,-81.1330,1.5,15.86,1111122 
ENP,ioos.station.NOAA.NDBC:LBRF1:1,2017-03-03T18:00:00Z,25.4840,-81.1330,1.5,15.26,1111122 
ENP,ioos.station.NOAA.NDBC:LBRF1:1,2017-03-03T19:00:00Z,25.4840,-81.1330,1.5,15.0,1111122 
ENP,ioos.station.NOAA.NDBC:LBRF1:1,2017-03-03T20:00:00Z,25.4840,-81.1330,1.5,15.26,1111122 
ENP,ioos.station.NOAA.NDBC:LBRF1:1,2017-03-03T21:00:00Z,25.4840,-81.1330,1.5,16.33,1111122 
ENP,ioos.station.NOAA.NDBC:LBRF1:1,2017-03-03T22:00:00Z,25.4840,-81.1330,1.5,21.1,11111222 
ENP,ioos.station.NOAA.NDBC:LBRF1:1,2017-03-03T23:00:00Z,25.4840,-81.1330,1.5,26.13,1111122 
ENP,ioos.station.NOAA.NDBC:LBRF1:1,2017-03-04T00:00:00Z,25.4840,-81.1330,1.5,27.55,1111122 
ENP,ioos.station.NOAA.NDBC:LBRF1:1,2017-03-04T01:00:00Z,25.4840,-81.1330,1.5,23.46,1111122 
ENP,ioos.station.NOAA.NDBC:LBRF1:1,2017-03-04T06:00:00Z,25.4840,-81.1330,1.5,14.0,11111222 
ENP,ioos.station.NOAA.NDBC:LBRF1:1,2017-03-04T07:00:00Z,25.4840,-81.1330,1.5,13.41,1111122 
ENP,ioos.station.NOAA.NDBC:LBRF1:1,2017-03-04T08:00:00Z,25.4840,-81.1330,1.5,12.75,1111122 
ENP,ioos.station.NOAA.NDBC:LBRF1:1,2017-03-04T09:00:00Z,25.4840,-81.1330,1.5,12.62,1111122 
ENP,ioos.station.NOAA.NDBC:LBRF1:1,2017-03-04T10:00:00Z,25.4840,-81.1330,1.5,12.6,11111222 
ENP,ioos.station.NOAA.NDBC:LBRF1:1,2017-03-04T11:00:00Z,25.4840,-81.1330,1.5,13.02,1111122 
ENP,ioos.station.NOAA.NDBC:LBRF1:1,2017-03-04T12:00:00Z,25.4840,-81.1330,1.5,13.87,1111122 
ENP,ioos.station.NOAA.NDBC:LBRF1:1,2017-03-04T13:00:00Z,25.4840,-81.1330,1.5,14.33,1111122 
ENP,ioos.station.NOAA.NDBC:LBRF1:1,2017-03-04T14:00:00Z,25.4840,-81.1330,1.5,13.8,1111122 
ENP,ioos.station.NOAA.NDBC:LBRF1:1,2017-03-04T15:00:00Z,25.4840,-81.1330,1.5,13.15,1111122 
ENP,ioos.station.NOAA.NDBC:LBRF1:1,2017-03-04T16:00:00Z,25.4840,-81.1330,1.5,12.75,1111122 
ENP,ioos.station.NOAA.NDBC:LBRF1:1,2017-03-04T17:00:00Z,25.4840,-81.1330,1.5,12.36,1111122 
ENP,ioos.station.NOAA.NDBC:LBRF1:1,2017-03-04T18:00:00Z,25.4840,-81.1330,1.5,12.04,1111122 
ENP,ioos.station.NOAA.NDBC:LBRF1:1,2017-03-04T19:00:00Z,25.4840,-81.1330,1.5,11.78,1111122 
ENP,ioos.station.NOAA.NDBC:LBRF1:1,2017-03-04T20:00:00Z,25.4840,-81.1330,1.5,11.65,1111122 
ENP,ioos.station.NOAA.NDBC:LBRF1:1,2017-03-04T21:00:00Z,25.4840,-81.1330,1.5,11.84,1111122 
ENP,ioos.station.NOAA.NDBC:LBRF1:1,2017-03-04T22:00:00Z,25.4840,-81.1330,1.5,12.23,1111122 
ENP,ioos.station.NOAA.NDBC:LBRF1:1,2017-03-04T23:00:00Z,25.4840,-81.1330,1.5,13.61,1111122 
ENP,ioos.station.NOAA.NDBC:LBRF1:1,2017-03-05T00:00:00Z,25.4840,-81.1330,1.5,15.2,1111122 
ENP,ioos.station.NOAA.NDBC:LBRF1:1,2017-03-05T01:00:00Z,25.4840,-81.1330,1.5,16.4,1111122 
ENP,ioos.station.NOAA.NDBC:LBRF1:1,2017-03-05T03:00:00Z,25.4840,-81.1330,1.5,14.7,11111222 
ENP,ioos.station.NOAA.NDBC:LBRF1:1,2017-03-05T04:00:00Z,25.4840,-81.1330,1.5,13.61,1111122 
ENP,ioos.station.NOAA.NDBC:LBRF1:1,2017-03-05T06:00:00Z,25.4840,-81.1330,1.5,12.0,11111222 
ENP,ioos.station.NOAA.NDBC:LBRF1:1,2017-03-05T07:00:00Z,25.4840,-81.1330,1.5,11.97,1111122 
ENP,ioos.station.NOAA.NDBC:LBRF1:1,2017-03-05T08:00:00Z,25.4840,-81.1330,1.5,9.91,1111122 
ENP,ioos.station.NOAA.NDBC:LBRF1:1,2017-03-05T09:00:00Z,25.4840,-81.1330,1.5,10.81,1111122 
ENP,ioos.station.NOAA.NDBC:LBRF1:1,2017-03-05T10:00:00Z,25.4840,-81.1330,1.5,10.7,11111222 
ENP,ioos.station.NOAA.NDBC:LBRF1:1,2017-03-05T11:00:00Z,25.4840,-81.1330,1.5,11.32,1111122 
ENP,ioos.station.NOAA.NDBC:LBRF1:1,2017-03-05T12:00:00Z,25.4840,-81.1330,1.5,12.95,1111122 
ENP,ioos.station.NOAA.NDBC:LBRF1:1,2017-03-05T13:00:00Z,25.4840,-81.1330,1.5,14.13,1111122 
ENP,ioos.station.NOAA.NDBC:LBRF1:1,2017-03-05T14:00:00Z,25.4840,-81.1330,1.5,15.86,1111122 
ENP,ioos.station.NOAA.NDBC:LBRF1:1,2017-03-05T15:00:00Z,25.4840,-81.1330,1.5,15.86,1111122 
ENP,ioos.station.NOAA.NDBC:LBRF1:1,2017-03-05T16:00:00Z,25.4840,-81.1330,1.5,14.0,1111122 
ENP,ioos.station.NOAA.NDBC:LBRF1:1,2017-03-05T17:00:00Z,25.4840,-81.1330,1.5,12.95,1111122 
ENP,ioos.station.NOAA.NDBC:LBRF1:1,2017-03-05T18:00:00Z,25.4840,-81.1330,1.5,12.17,1111122 
ENP,ioos.station.NOAA.NDBC:LBRF1:1,2017-03-05T19:00:00Z,25.4840,-81.1330,1.5,11.32,1111122 
ENP,ioos.station.NOAA.NDBC:LBRF1:1,2017-03-05T20:00:00Z,25.4840,-81.1330,1.5,11.32,1111122 
ENP,ioos.station.NOAA.NDBC:LBRF1:1,2017-03-05T21:00:00Z,25.4840,-81.1330,1.5,10.68,1111122 
ENP,ioos.station.NOAA.NDBC:LBRF1:1,2017-03-05T22:00:00Z,25.4840,-81.1330,1.5,10.55,1111122 
ENP,ioos.station.NOAA.NDBC:LBRF1:1,2017-03-05T23:00:00Z,25.4840,-81.1330,1.5,11.26,1111122 
ENP,ioos.station.NOAA.NDBC:LBRF1:1,2017-03-06T00:00:00Z,25.4840,-81.1330,1.5,12.23,1111122 
ENP,ioos.station.NOAA.NDBC:LBRF1:1,2017-03-06T01:00:00Z,25.4840,-81.1330,1.5,14.4,1111122 
ENP,ioos.station.NOAA.NDBC:LBRF1:1,2017-03-06T03:00:00Z,25.4840,-81.1330,1.5,18.0,11111222 
ENP,ioos.station.NOAA.NDBC:LBRF1:1,2017-03-06T04:00:00Z,25.4840,-81.1330,1.5,17.27,1111122 
ENP,ioos.station.NOAA.NDBC:LBRF1:1,2017-03-06T05:00:00Z,25.4840,-81.1330,1.5,15.1,11111222 
ENP,ioos.station.NOAA.NDBC:LBRF1:1,2017-03-06T06:00:00Z,25.4840,-81.1330,1.5,13.2,11111222 
ENP,ioos.station.NOAA.NDBC:LBRF1:1,2017-03-06T07:00:00Z,25.4840,-81.1330,1.5,11.91,1111122 
ENP,ioos.station.NOAA.NDBC:LBRF1:1,2017-03-06T08:00:00Z,25.4840,-81.1330,1.5,11.78,1111122 
ENP,ioos.station.NOAA.NDBC:LBRF1:1,2017-03-06T09:00:00Z,25.4840,-81.1330,1.5,11.19,1111122 
ENP,ioos.station.NOAA.NDBC:LBRF1:1,2017-03-06T10:00:00Z,25.4840,-81.1330,1.5,10.68,1111122 
ENP,ioos.station.NOAA.NDBC:LBRF1:1,2017-03-06T11:00:00Z,25.4840,-81.1330,1.5,7.9,11111222 
ENP,ioos.station.NOAA.NDBC:LBRF1:1,2017-03-06T12:00:00Z,25.4840,-81.1330,1.5,11.06,1111122 
ENP,ioos.station.NOAA.NDBC:LBRF1:1,2017-03-06T13:00:00Z,25.4840,-81.1330,1.5,11.65,1111122 
ENP,ioos.station.NOAA.NDBC:LBRF1:1,2017-03-06T14:00:00Z,25.4840,-81.1330,1.5,13.34,1111122 
ENP,ioos.station.NOAA.NDBC:LBRF1:1,2017-03-06T15:00:00Z,25.4840,-81.1330,1.5,14.8,1111122 
ENP,ioos.station.NOAA.NDBC:LBRF1:1,2017-03-06T16:00:00Z,25.4840,-81.1330,1.5,15.86,1111122 
ENP,ioos.station.NOAA.NDBC:LBRF1:1,2017-03-06T17:00:00Z,25.4840,-81.1330,1.5,13.94,1111122 
ENP,ioos.station.NOAA.NDBC:LBRF1:1,2017-03-06T18:00:00Z,25.4840,-81.1330,1.5,12.95,1111122 
ENP,ioos.station.NOAA.NDBC:LBRF1:1,2017-03-06T19:00:00Z,25.4840,-81.1330,1.5,11.97,1111122 
ENP,ioos.station.NOAA.NDBC:LBRF1:1,2017-03-06T20:00:00Z,25.4840,-81.1330,1.5,11.52,1111122 
ENP,ioos.station.NOAA.NDBC:LBRF1:1,2017-03-06T21:00:00Z,25.4840,-81.1330,1.5,11.26,1111122 
ENP,ioos.station.NOAA.NDBC:LBRF1:1,2017-03-06T22:00:00Z,25.4840,-81.1330,1.5,12.1,1111122 
ENP,ioos.station.NOAA.NDBC:LBRF1:1,2017-03-06T23:00:00Z,25.4840,-81.1330,1.5,15.86,1111122 
ENP,ioos.station.NOAA.NDBC:LBRF1:1,2017-03-07T00:00:00Z,25.4840,-81.1330,1.5,17.68,1111122 
ENP,ioos.station.NOAA.NDBC:LBRF1:1,2017-03-07T01:00:00Z,25.4840,-81.1330,1.5,23.32,1111122 
ENP,ioos.station.NOAA.NDBC:LBRF1:1,2017-03-07T03:00:00Z,25.4840,-81.1330,1.5,28.7,11111222 
ENP,ioos.station.NOAA.NDBC:LBRF1:1,2017-03-07T04:00:00Z,25.4840,-81.1330,1.5,29.63,1111122 
ENP,ioos.station.NOAA.NDBC:LBRF1:1,2017-03-07T06:00:00Z,25.4840,-81.1330,1.5,27.8,11111222 
ENP,ioos.station.NOAA.NDBC:LBRF1:1,2017-03-07T07:00:00Z,25.4840,-81.1330,1.5,26.06,1111122 
ENP,ioos.station.NOAA.NDBC:LBRF1:1,2017-03-07T08:00:00Z,25.4840,-81.1330,1.5,23.95,1111122 
ENP,ioos.station.NOAA.NDBC:LBRF1:1,2017-03-07T09:00:00Z,25.4840,-81.1330,1.5,20.61,1111122 
ENP,ioos.station.NOAA.NDBC:LBRF1:1,2017-03-07T10:00:00Z,25.4840,-81.1330,1.5,17.21,1111122 
ENP,ioos.station.NOAA.NDBC:LBRF1:1,2017-03-07T11:00:00Z,25.4840,-81.1330,1.5,15.3,11111222 
ENP,ioos.station.NOAA.NDBC:LBRF1:1,2017-03-07T12:00:00Z,25.4840,-81.1330,1.5,16.33,1111122 
ENP,ioos.station.NOAA.NDBC:LBRF1:1,2017-03-07T13:00:00Z,25.4840,-81.1330,1.5,19.72,1111122 
ENP,ioos.station.NOAA.NDBC:LBRF1:1,2017-03-07T14:00:00Z,25.4840,-81.1330,1.5,23.53,1111122 
ENP,ioos.station.NOAA.NDBC:LBRF1:1,2017-03-07T15:00:00Z,25.4840,-81.1330,1.5,27.41,1111122 
ENP,ioos.station.NOAA.NDBC:LBRF1:1,2017-03-07T16:00:00Z,25.4840,-81.1330,1.5,28.27,1111122 
ENP,ioos.station.NOAA.NDBC:LBRF1:1,2017-03-07T17:00:00Z,25.4840,-81.1330,1.5,28.98,1111122 
ENP,ioos.station.NOAA.NDBC:LBRF1:1,2017-03-07T18:00:00Z,25.4840,-81.1330,1.5,29.2,1111122 
ENP,ioos.station.NOAA.NDBC:LBRF1:1,2017-03-07T19:00:00Z,25.4840,-81.1330,1.5,28.7,1111122 
ENP,ioos.station.NOAA.NDBC:LBRF1:1,2017-03-07T20:00:00Z,25.4840,-81.1330,1.5,28.12,1111122 
ENP,ioos.station.NOAA.NDBC:LBRF1:1,2017-03-07T21:00:00Z,25.4840,-81.1330,1.5,27.5,11111222 
ENP,ioos.station.NOAA.NDBC:LBRF1:1,2017-03-07T22:00:00Z,25.4840,-81.1330,1.5,26.6,11111222 
ENP,ioos.station.NOAA.NDBC:LBRF1:1,2017-03-07T23:00:00Z,25.4840,-81.1330,1.5,27.1,11111222 
ENP,ioos.station.NOAA.NDBC:LBRF1:1,2017-03-08T00:00:00Z,25.4840,-81.1330,1.5,28.0,11111222 
ENP,ioos.station.NOAA.NDBC:LBRF1:1,2017-03-08T01:00:00Z,25.4840,-81.1330,1.5,29.77,1111122 
ENP,ioos.station.NOAA.NDBC:LBRF1:1,2017-03-08T03:00:00Z,25.4840,-81.1330,1.5,31.5,11111222 
ENP,ioos.station.NOAA.NDBC:LBRF1:1,2017-03-08T04:00:00Z,25.4840,-81.1330,1.5,32.5,11111222 
ENP,ioos.station.NOAA.NDBC:LBRF1:1,2017-03-08T06:00:00Z,25.4840,-81.1330,1.5,32.7,11111222 
ENP,ioos.station.NOAA.NDBC:LBRF1:1,2017-03-08T07:00:00Z,25.4840,-81.1330,1.5,32.17,1111122 
ENP,ioos.station.NOAA.NDBC:LBRF1:1,2017-03-08T08:00:00Z,25.4840,-81.1330,1.5,31.3,11111222 
ENP,ioos.station.NOAA.NDBC:LBRF1:1,2017-03-08T09:00:00Z,25.4840,-81.1330,1.5,30.4,11111222 
ENP,ioos.station.NOAA.NDBC:LBRF1:1,2017-03-08T10:00:00Z,25.4840,-81.1330,1.5,29.2,11111222 
ENP,ioos.station.NOAA.NDBC:LBRF1:1,2017-03-08T11:00:00Z,25.4840,-81.1330,1.5,26.13,1111122 
ENP,ioos.station.NOAA.NDBC:LBRF1:1,2017-03-08T12:00:00Z,25.4840,-81.1330,1.5,22.8,11111222 
ENP,ioos.station.NOAA.NDBC:LBRF1:1,2017-03-08T13:00:00Z,25.4840,-81.1330,1.5,21.51,1111122 
ENP,ioos.station.NOAA.NDBC:LBRF1:1,2017-03-08T14:00:00Z,25.4840,-81.1330,1.5,23.53,1111122 
ENP,ioos.station.NOAA.NDBC:LBRF1:1,2017-03-08T15:00:00Z,25.4840,-81.1330,1.5,27.55,1111122 
ENP,ioos.station.NOAA.NDBC:LBRF1:1,2017-03-08T16:00:00Z,25.4840,-81.1330,1.5,30.35,1111122 
ENP,ioos.station.NOAA.NDBC:LBRF1:1,2017-03-08T17:00:00Z,25.4840,-81.1330,1.5,31.44,1111122 
ENP,ioos.station.NOAA.NDBC:LBRF1:1,2017-03-08T18:00:00Z,25.4840,-81.1330,1.5,31.58,1111122 
ENP,ioos.station.NOAA.NDBC:LBRF1:1,2017-03-08T19:00:00Z,25.4840,-81.1330,1.5,31.87,1111122 
ENP,ioos.station.NOAA.NDBC:LBRF1:1,2017-03-08T20:00:00Z,25.4840,-81.1330,1.5,31.58,1111122 
ENP,ioos.station.NOAA.NDBC:LBRF1:1,2017-03-08T21:00:00Z,25.4840,-81.1330,1.5,31.08,1111122 
ENP,ioos.station.NOAA.NDBC:LBRF1:1,2017-03-08T22:00:00Z,25.4840,-81.1330,1.5,30.5,1111122 
ENP,ioos.station.NOAA.NDBC:LBRF1:1,2017-03-08T23:00:00Z,25.4840,-81.1330,1.5,29.2,11111222 
ENP,ioos.station.NOAA.NDBC:LBRF1:1,2017-03-09T00:00:00Z,25.4840,-81.1330,1.5,28.91,1111122 
ENP,ioos.station.NOAA.NDBC:LBRF1:1,2017-03-09T01:00:00Z,25.4840,-81.1330,1.5,29.99,1111122 
ENP,ioos.station.NOAA.NDBC:LBRF1:1,2017-03-09T03:00:00Z,25.4840,-81.1330,1.5,31.6,11111222 
ENP,ioos.station.NOAA.NDBC:LBRF1:1,2017-03-09T04:00:00Z,25.4840,-81.1330,1.5,32.3,11111222 
ENP,ioos.station.NOAA.NDBC:LBRF1:1,2017-03-09T06:00:00Z,25.4840,-81.1330,1.5,32.8,11111222 
ENP,ioos.station.NOAA.NDBC:LBRF1:1,2017-03-09T07:00:00Z,25.4840,-81.1330,1.5,33.12,1111122 
ENP,ioos.station.NOAA.NDBC:LBRF1:1,2017-03-09T08:00:00Z,25.4840,-81.1330,1.5,32.8,11111222 
ENP,ioos.station.NOAA.NDBC:LBRF1:1,2017-03-09T09:00:00Z,25.4840,-81.1330,1.5,32.2,11111222 
ENP,ioos.station.NOAA.NDBC:LBRF1:1,2017-03-09T10:00:00Z,25.4840,-81.1330,1.5,31.73,1111122 
ENP,ioos.station.NOAA.NDBC:LBRF1:1,2017-03-09T11:00:00Z,25.4840,-81.1330,1.5,30.7,11111222 
ENP,ioos.station.NOAA.NDBC:LBRF1:1,2017-03-09T12:00:00Z,25.4840,-81.1330,1.5,29.1,11111222 
ENP,ioos.station.NOAA.NDBC:LBRF1:1,2017-03-09T13:00:00Z,25.4840,-81.1330,1.5,25.07,1111122 
ENP,ioos.station.NOAA.NDBC:LBRF1:1,2017-03-09T14:00:00Z,25.4840,-81.1330,1.5,23.4,11111222 
ENP,ioos.station.NOAA.NDBC:LBRF1:1,2017-03-09T15:00:00Z,25.4840,-81.1330,1.5,25.4,11111222 
ENP,ioos.station.NOAA.NDBC:LBRF1:1,2017-03-09T16:00:00Z,25.4840,-81.1330,1.5,29.56,1111122 
ENP,ioos.station.NOAA.NDBC:LBRF1:1,2017-03-09T17:00:00Z,25.4840,-81.1330,1.5,31.7,11111222 
ENP,ioos.station.NOAA.NDBC:LBRF1:1,2017-03-09T18:00:00Z,25.4840,-81.1330,1.5,32.09,1111122 
ENP,ioos.station.NOAA.NDBC:LBRF1:1,2017-03-09T19:00:00Z,25.4840,-81.1330,1.5,32.31,1111122 
ENP,ioos.station.NOAA.NDBC:LBRF1:1,2017-03-09T20:00:00Z,25.4840,-81.1330,1.5,32.46,1111122 
ENP,ioos.station.NOAA.NDBC:LBRF1:1,2017-03-09T21:00:00Z,25.4840,-81.1330,1.5,32.17,1111122 
ENP,ioos.station.NOAA.NDBC:LBRF1:1,2017-03-09T22:00:00Z,25.4840,-81.1330,1.5,31.87,1111122 
ENP,ioos.station.NOAA.NDBC:LBRF1:1,2017-03-09T23:00:00Z,25.4840,-81.1330,1.5,30.86,1111122 
ENP,ioos.station.NOAA.NDBC:LBRF1:1,2017-03-10T00:00:00Z,25.4840,-81.1330,1.5,28.91,1111122 
ENP,ioos.station.NOAA.NDBC:LBRF1:1,2017-03-10T01:00:00Z,25.4840,-81.1330,1.5,26.8,11111222 
ENP,ioos.station.NOAA.NDBC:LBRF1:1,2017-03-10T03:00:00Z,25.4840,-81.1330,1.5,31.0,11111222 
ENP,ioos.station.NOAA.NDBC:LBRF1:1,2017-03-10T04:00:00Z,25.4840,-81.1330,1.5,32.53,1111122 
ENP,ioos.station.NOAA.NDBC:LBRF1:1,2017-03-10T06:00:00Z,25.4840,-81.1330,1.5,33.1,11111222 
ENP,ioos.station.NOAA.NDBC:LBRF1:1,2017-03-10T07:00:00Z,25.4840,-81.1330,1.5,33.26,1111122 
ENP,ioos.station.NOAA.NDBC:LBRF1:1,2017-03-10T08:00:00Z,25.4840,-81.1330,1.5,33.3,11111222 
ENP,ioos.station.NOAA.NDBC:LBRF1:1,2017-03-10T09:00:00Z,25.4840,-81.1330,1.5,33.0,11111222 
ENP,ioos.station.NOAA.NDBC:LBRF1:1,2017-03-10T10:00:00Z,25.4840,-81.1330,1.5,32.5,11111222 
ENP,ioos.station.NOAA.NDBC:LBRF1:1,2017-03-10T11:00:00Z,25.4840,-81.1330,1.5,32.09,1111122 
ENP,ioos.station.NOAA.NDBC:LBRF1:1,2017-03-10T12:00:00Z,25.4840,-81.1330,1.5,30.6,11111222 
ENP,ioos.station.NOAA.NDBC:LBRF1:1,2017-03-10T13:00:00Z,25.4840,-81.1330,1.5,27.91,1111122 
ENP,ioos.station.NOAA.NDBC:LBRF1:1,2017-03-10T14:00:00Z,25.4840,-81.1330,1.5,24.8,11111222 
ENP,ioos.station.NOAA.NDBC:LBRF1:1,2017-03-10T15:00:00Z,25.4840,-81.1330,1.5,25.0,11111222 
ENP,ioos.station.NOAA.NDBC:LBRF1:1,2017-03-10T16:00:00Z,25.4840,-81.1330,1.5,28.6,11111222 
ENP,ioos.station.NOAA.NDBC:LBRF1:1,2017-03-10T17:00:00Z,25.4840,-81.1330,1.5,31.95,1111122 
ENP,ioos.station.NOAA.NDBC:LBRF1:1,2017-03-10T18:00:00Z,25.4840,-81.1330,1.5,32.9,11111222 
ENP,ioos.station.NOAA.NDBC:LBRF1:1,2017-03-10T19:00:00Z,25.4840,-81.1330,1.5,33.0,11111222 
ENP,ioos.station.NOAA.NDBC:LBRF1:1,2017-03-10T20:00:00Z,25.4840,-81.1330,1.5,31.37,1111122 
ENP,ioos.station.NOAA.NDBC:LBRF1:1,2017-03-10T21:00:00Z,25.4840,-81.1330,1.5,31.4,11111222 
ENP,ioos.station.NOAA.NDBC:LBRF1:1,2017-03-10T22:00:00Z,25.4840,-81.1330,1.5,31.15,1111122 
ENP,ioos.station.NOAA.NDBC:LBRF1:1,2017-03-10T23:00:00Z,25.4840,-81.1330,1.5,30.64,1111122 
ENP,ioos.station.NOAA.NDBC:LBRF1:1,2017-03-11T00:00:00Z,25.4840,-81.1330,1.5,30.28,1111122 
ENP,ioos.station.NOAA.NDBC:LBRF1:1,2017-03-11T01:00:00Z,25.4840,-81.1330,1.5,28.55,1111122 
ENP,ioos.station.NOAA.NDBC:LBRF1:1,2017-03-11T06:00:00Z,25.4840,-81.1330,1.5,31.5,11111222 
ENP,ioos.station.NOAA.NDBC:LBRF1:1,2017-03-11T07:00:00Z,25.4840,-81.1330,1.5,32.4,11111222 
ENP,ioos.station.NOAA.NDBC:LBRF1:1,2017-03-11T08:00:00Z,25.4840,-81.1330,1.5,32.46,1111122 
ENP,ioos.station.NOAA.NDBC:LBRF1:1,2017-03-11T09:00:00Z,25.4840,-81.1330,1.5,32.4,11111222 
ENP,ioos.station.NOAA.NDBC:LBRF1:1,2017-03-11T10:00:00Z,25.4840,-81.1330,1.5,32.0,11111222 
ENP,ioos.station.NOAA.NDBC:LBRF1:1,2017-03-11T11:00:00Z,25.4840,-81.1330,1.5,31.37,1111122 
ENP,ioos.station.NOAA.NDBC:LBRF1:1,2017-03-11T12:00:00Z,25.4840,-81.1330,1.5,30.79,1111122 
ENP,ioos.station.NOAA.NDBC:LBRF1:1,2017-03-11T13:00:00Z,25.4840,-81.1330,1.5,29.13,1111122 
ENP,ioos.station.NOAA.NDBC:LBRF1:1,2017-03-11T14:00:00Z,25.4840,-81.1330,1.5,26.41,1111122 
ENP,ioos.station.NOAA.NDBC:LBRF1:1,2017-03-11T15:00:00Z,25.4840,-81.1330,1.5,23.88,1111122 
ENP,ioos.station.NOAA.NDBC:LBRF1:1,2017-03-11T16:00:00Z,25.4840,-81.1330,1.5,23.8,11111222 
ENP,ioos.station.NOAA.NDBC:LBRF1:1,2017-03-11T17:00:00Z,25.4840,-81.1330,1.5,26.41,1111122 
ENP,ioos.station.NOAA.NDBC:LBRF1:1,2017-03-11T18:00:00Z,25.4840,-81.1330,1.5,30.28,1111122 
ENP,ioos.station.NOAA.NDBC:LBRF1:1,2017-03-11T19:00:00Z,25.4840,-81.1330,1.5,31.58,1111122 
ENP,ioos.station.NOAA.NDBC:LBRF1:1,2017-03-11T20:00:00Z,25.4840,-81.1330,1.5,31.87,1111122 
ENP,ioos.station.NOAA.NDBC:LBRF1:1,2017-03-11T21:00:00Z,25.4840,-81.1330,1.5,32.02,1111122 
ENP,ioos.station.NOAA.NDBC:LBRF1:1,2017-03-11T22:00:00Z,25.4840,-81.1330,1.5,31.73,1111122 
ENP,ioos.station.NOAA.NDBC:LBRF1:1,2017-03-11T23:00:00Z,25.4840,-81.1330,1.5,31.3,11111222 
ENP,ioos.station.NOAA.NDBC:LBRF1:1,2017-03-12T00:00:00Z,25.4840,-81.1330,1.5,30.2,11111222 
ENP,ioos.station.NOAA.NDBC:LBRF1:1,2017-03-12T01:00:00Z,25.4840,-81.1330,1.5,27.98,1111122 
ENP,ioos.station.NOAA.NDBC:LBRF1:1,2017-03-12T03:00:00Z,25.4840,-81.1330,1.5,23.5,11111222 
ENP,ioos.station.NOAA.NDBC:LBRF1:1,2017-03-12T04:00:00Z,25.4840,-81.1330,1.5,25.9,11111222 
ENP,ioos.station.NOAA.NDBC:LBRF1:1,2017-03-12T12:00:00Z,25.4840,-81.1330,1.5,31.15,1111122 
ENP,ioos.station.NOAA.NDBC:LBRF1:1,2017-03-12T13:00:00Z,25.4840,-81.1330,1.5,30.06,1111122 
ENP,ioos.station.NOAA.NDBC:LBRF1:1,2017-03-12T14:00:00Z,25.4840,-81.1330,1.5,26.98,1111122 
ENP,ioos.station.NOAA.NDBC:LBRF1:1,2017-03-12T15:00:00Z,25.4840,-81.1330,1.5,24.65,1111122 
ENP,ioos.station.NOAA.NDBC:LBRF1:1,2017-03-12T16:00:00Z,25.4840,-81.1330,1.5,25.0,1111122 
ENP,ioos.station.NOAA.NDBC:LBRF1:1,2017-03-12T17:00:00Z,25.4840,-81.1330,1.5,27.98,1111122 
ENP,ioos.station.NOAA.NDBC:LBRF1:1,2017-03-12T18:00:00Z,25.4840,-81.1330,1.5,31.08,1111122 
ENP,ioos.station.NOAA.NDBC:LBRF1:1,2017-03-12T19:00:00Z,25.4840,-81.1330,1.5,31.8,1111122 
ENP,ioos.station.NOAA.NDBC:LBRF1:1,2017-03-12T20:00:00Z,25.4840,-81.1330,1.5,32.0,11111222 
ENP,ioos.station.NOAA.NDBC:LBRF1:1,2017-03-12T21:00:00Z,25.4840,-81.1330,1.5,32.2,11111222 
ENP,ioos.station.NOAA.NDBC:LBRF1:1,2017-03-12T22:00:00Z,25.4840,-81.1330,1.5,32.0,11111222 
ENP,ioos.station.NOAA.NDBC:LBRF1:1,2017-03-12T23:00:00Z,25.4840,-81.1330,1.5,31.9,11111222 
ENP,ioos.station.NOAA.NDBC:LBRF1:1,2017-03-13T00:00:00Z,25.4840,-81.1330,1.5,31.3,11111222 
ENP,ioos.station.NOAA.NDBC:LBRF1:1,2017-03-13T03:00:00Z,25.4840,-81.1330,1.5,24.93,1111122 
ENP,ioos.station.NOAA.NDBC:LBRF1:1,2017-03-13T05:00:00Z,25.4840,-81.1330,1.5,26.06,1111122 
ENP,ioos.station.NOAA.NDBC:LBRF1:1,2017-03-13T06:00:00Z,25.4840,-81.1330,1.5,30.7,11111222 
ENP,ioos.station.NOAA.NDBC:LBRF1:1,2017-03-13T07:00:00Z,25.4840,-81.1330,1.5,30.4,11111222 
ENP,ioos.station.NOAA.NDBC:LBRF1:1,2017-03-13T08:00:00Z,25.4840,-81.1330,1.5,32.2,11111222 
ENP,ioos.station.NOAA.NDBC:LBRF1:1,2017-03-13T10:00:00Z,25.4840,-81.1330,1.5,32.4,11111222 
ENP,ioos.station.NOAA.NDBC:LBRF1:1,2017-03-13T11:00:00Z,25.4840,-81.1330,1.5,32.1,11111222 
ENP,ioos.station.NOAA.NDBC:LBRF1:1,2017-03-13T12:00:00Z,25.4840,-81.1330,1.5,31.51,1111122 
ENP,ioos.station.NOAA.NDBC:LBRF1:1,2017-03-13T13:00:00Z,25.4840,-81.1330,1.5,31.15,1111122 
ENP,ioos.station.NOAA.NDBC:LBRF1:1,2017-03-13T14:00:00Z,25.4840,-81.1330,1.5,28.91,1111122 
ENP,ioos.station.NOAA.NDBC:LBRF1:1,2017-03-13T15:00:00Z,25.4840,-81.1330,1.5,25.42,1111122 
ENP,ioos.station.NOAA.NDBC:LBRF1:1,2017-03-13T16:00:00Z,25.4840,-81.1330,1.5,24.3,1111122 
ENP,ioos.station.NOAA.NDBC:LBRF1:1,2017-03-13T17:00:00Z,25.4840,-81.1330,1.5,26.27,1111122 
ENP,ioos.station.NOAA.NDBC:LBRF1:1,2017-03-13T18:00:00Z,25.4840,-81.1330,1.5,30.86,1111122 
ENP,ioos.station.NOAA.NDBC:LBRF1:1,2017-03-13T19:00:00Z,25.4840,-81.1330,1.5,31.87,1111122 
ENP,ioos.station.NOAA.NDBC:LBRF1:1,2017-03-13T20:00:00Z,25.4840,-81.1330,1.5,32.46,1111122 
ENP,ioos.station.NOAA.NDBC:LBRF1:1,2017-03-13T21:00:00Z,25.4840,-81.1330,1.5,32.7,11111222 
ENP,ioos.station.NOAA.NDBC:LBRF1:1,2017-03-13T22:00:00Z,25.4840,-81.1330,1.5,32.8,11111222 